Total_Precipitation_Accumulation
1.22 1.15 1.14 1.04 1.02 1.01 1.01 1.14 1.33 1.16 0.75 0.57 0.55 0.56 0.56 0.62 0.71 0.67 0.60 0.68 0.76 0.81 0.96 1.06 1.10 1.18 1.51 2.21 3.25 4.01 3.95 3.32 2.64 2.33 2.47 2.88 3.42 3.92
1.23 1.23 1.19 1.12 1.08 1.08 1.07 1.04 1.09 1.21 0.98 0.59 0.52 0.56 0.62 0.63 0.71 0.67 0.65 0.73 0.76 0.78 0.87 0.93 0.99 1.11 1.25 1.54 2.16 3.18 3.87 3.82 3.26 2.75 2.63 2.81 3.12 3.67
1.21 1.21 1.19 1.13 1.13 1.11 1.10 1.02 0.95 1.04 1.07 0.66 0.53 0.57 0.66 0.70 0.73 0.72 0.71 0.70 0.69 0.74 0.82 0.89 0.94 1.03 1.17 1.35 1.64 2.28 3.22 3.78 3.83 3.40 3.11 3.03 3.10 3.27
1.34 1.27 1.23 1.22 1.25 1.21 1.17 1.08 0.96 0.92 1.02 0.87 0.60 0.58 0.66 0.75 0.82 0.83 0.80 0.77 0.73 0.83 0.87 0.90 0.94 0.98 1.10 1.27 1.47 1.78 2.42 3.21 3.76 3.76 3.41 3.11 2.99 3.09
1.62 1.58 1.48 1.42 1.44 1.39 1.31 1.17 1.02 0.93 0.94 0.95 0.76 0.64 0.69 0.81 0.95 0.97 0.94 0.89 0.82 0.91 0.94 0.96 0.98 0.99 1.04 1.18 1.36 1.56 1.85 2.26 2.87 3.45 3.65 3.41 3.09 3.01
1.83 1.77 1.76 1.71 1.64 1.59 1.56 1.36 1.15 1.08 1.03 1.05 0.93 0.78 0.77 0.87 1.10 1.20 1.17 1.09 1.02 0.94 0.98 0.99 1.04 1.05 1.04 1.06 1.14 1.29 1.55 1.93 2.37 2.97 3.53 3.66 3.33 3.08
1.65 1.60 1.66 1.79 1.84 1.83 1.82 1.63 1.46 1.42 1.34 1.30 1.17 1.00 0.93 1.03 1.22 1.29 1.36 1.30 1.30 1.14 1.00 0.93 0.93 0.94 0.96 1.04 1.11 1.20 1.38 1.62 1.93 2.41 3.02 3.54 3.58 3.39
1.50 1.43 1.42 1.53 1.59 1.65 1.77 1.76 1.77 1.83 1.78 1.62 1.43 1.25 1.06 1.01 1.14 1.42 1.56 1.65 1.67 1.36 1.18 1.10 0.97 0.98 0.98 0.99 1.08 1.12 1.27 1.52 1.77 2.06 2.47 3.00 3.45 3.58
1.28 1.27 1.25 1.27 1.37 1.27 1.40 1.51 1.60 1.77 1.89 1.86 1.77 1.44 1.20 1.11 1.29 1.54 1.65 1.73 1.64 1.47 1.46 1.53 1.29 1.15 1.09 1.10 1.16 1.12 1.22 1.42 1.65 1.87 2.13 2.49 2.97 3.43
1.28 1.16 1.10 1.10 1.24 1.31 1.34 1.33 1.27 1.38 1.63 1.77 1.85 1.64 1.41 1.37 1.59 1.83 1.97 1.99 1.82 1.70 1.68 1.82 1.53 1.33 1.25 1.20 1.20 1.13 1.15 1.30 1.50 1.68 1.90 2.13 2.49 2.93
1.38 1.29 1.18 1.05 1.30 1.43 1.32 1.23 1.13 1.17 1.33 1.59 1.76 1.77 1.76 1.80 1.95 2.20 2.34 2.39 2.26 1.93 1.80 1.90 1.75 1.53 1.48 1.47 1.38 1.27 1.14 1.18 1.32 1.49 1.63 1.82 2.07 2.44
1.39 1.35 1.43 1.34 1.41 1.37 1.20 1.22 1.24 1.10 1.07 1.15 1.24 1.33 1.33 1.38 1.67 1.90 2.10 2.32 2.29 2.26 1.92 1.91 1.94 1.89 2.05 1.73 1.45 1.22 1.10 1.11 1.18 1.28 1.38 1.51 1.70 1.83
1.41 1.34 1.33 1.47 1.40 1.31 1.23 1.19 1.30 1.15 1.03 1.09 1.11 1.12 1.15 1.24 1.34 1.53 1.78 2.03 2.23 2.22 1.91 2.03 2.28 2.09 2.14 1.98 1.66 1.35 1.09 0.98 1.00 1.15 1.27 1.38 1.48 1.53
1.33 1.19 1.21 1.38 1.36 1.34 1.25 1.29 1.36 1.29 1.17 1.16 1.09 1.03 1.07 1.16 1.25 1.35 1.54 1.70 1.82 1.91 1.78 1.96 2.44 2.29 2.19 1.94 1.71 1.56 1.29 1.07 0.96 1.01 1.08 1.34 1.42 1.48
1.42 1.45 1.40 1.41 1.35 1.22 1.20 1.25 1.26 1.22 1.27 1.23 1.08 0.97 0.96 1.06 1.15 1.28 1.38 1.49 1.59 1.68 1.78 1.85 2.14 2.29 2.31 2.12 1.69 1.53 1.51 1.39 1.12 1.03 1.04 1.09 1.18 1.31
1.53 1.52 1.50 1.47 1.36 1.28 1.27 1.17 1.09 1.15 1.24 1.18 1.07 1.01 0.97 1.03 1.14 1.25 1.37 1.43 1.60 1.66 1.72 1.82 1.99 2.31 2.38 1.95 1.74 1.59 1.41 1.54 1.37 1.08 1.01 1.05 1.10 1.11
1.55 1.55 1.48 1.41 1.39 1.28 1.18 1.12 1.09 1.14 1.17 1.09 1.09 1.12 1.09 1.10 1.14 1.17 1.31 1.41 1.56 1.56 1.68 1.87 1.96 2.14 2.26 2.15 2.01 1.66 1.38 1.29 1.25 1.11 1.05 1.16 1.24 1.21
1.55 1.45 1.28 1.21 1.20 1.16 1.12 1.09 1.07 1.08 1.03 1.03 1.07 1.11 1.13 1.14 1.15 1.16 1.25 1.39 1.47 1.43 1.53 1.74 1.96 2.24 2.40 2.41 2.21 1.81 1.50 1.33 1.26 1.16 1.04 1.16 1.38 1.39
1.31 1.16 1.04 1.06 1.06 1.01 0.98 0.96 0.94 0.91 0.94 1.00 1.05 1.07 1.10 1.14 1.17 1.21 1.25 1.33 1.37 1.37 1.46 1.62 1.94 2.27 2.40 2.41 2.45 2.10 1.77 1.53 1.44 1.41 1.24 1.15 1.29 1.35
1.09 1.06 1.01 0.97 0.98 0.95 0.90 0.88 0.86 0.86 0.94 1.01 1.01 0.99 1.03 1.11 1.15 1.16 1.19 1.28 1.36 1.41 1.46 1.55 1.84 2.18 2.38 2.26 2.31 2.31 2.19 1.86 1.63 1.62 1.46 1.26 1.23 1.39
1.06 0.99 0.96 0.96 0.94 0.90 0.87 0.88 0.90 0.91 0.91 0.97 1.00 0.98 0.99 1.07 1.11 1.07 1.11 1.24 1.35 1.42 1.47 1.48 1.64 1.96 2.14 2.08 2.05 2.04 2.18 2.24 1.90 1.70 1.58 1.55 1.54 1.61
1.03 1.02 0.97 0.96 0.95 0.91 0.92 0.93 0.93 0.90 0.88 0.91 0.92 0.93 0.96 1.02 1.06 1.04 1.08 1.18 1.23 1.29 1.37 1.39 1.48 1.82 2.12 2.21 2.06 1.93 2.05 2.23 2.28 1.99 1.73 1.70 1.93 2.22
1.07 1.06 1.02 0.97 0.92 0.90 0.90 0.89 0.88 0.85 0.82 0.83 0.85 0.86 0.90 0.96 0.96 0.99 1.02 1.07 1.12 1.17 1.26 1.37 1.47 1.71 2.03 2.15 2.12 1.95 1.92 2.01 2.13 2.16 2.17 1.90 1.54 1.43